Location: *
(50.3194°N, 7.1067°E)
Time: 14:53:59
(UTC+00:00)

Cosmos 1140 Rocket - Pass Details

Date: 22 September 2019
Orbit: 745 x 767 km, 74.1° (Epoch: 18 October)

Event Time Altitude Azimuth Distance (km) Brightness Sun altitude
Rises 19:17:17 0° 332° (NNW) 3,222 7.6 -17.4°
Reaches altitude 10° 19:19:43 10° 327° (NNW) 2,289 6.8 -17.8°
Maximum altitude 19:24:42 50° 254° (WSW) 958 4.3 -18.5°
Drops below altitude 10° 19:29:38 10° 180° (S) 2,261 5.7 -19.2°
Enters shadow 19:29:46 - 179° (S) 2,308 5.7 -19.3°
